Printer-friendly version

IAU Minor Planet Center

Minor Planet Center

MPEC 2004-D34 : 2004 AF

The following Minor Planet Electronic Circular may be linked-to from your own Web pages, but must not otherwise be redistributed electronically.


Read MPEC 2004-D33 Read MPEC 2004-D35


M.P.E.C. 2004-D34                                Issued 2004 Feb. 24, 03:49 UT

     The Minor Planet Electronic Circulars contain information on unusual
         minor planets and routine data on comets.  They are published
   on behalf of Commission 20 of the International Astronomical Union by the
          Minor Planet Center, Smithsonian Astrophysical Observatory,
                          Cambridge, MA 02138, U.S.A.

         Supported in part by the Steven and Michele Kirsch Foundation
             Prepared using the Tamkin Foundation Computer Network

                              MPC@CFA.HARVARD.EDU
          URL http://cfa-www.harvard.edu/iau/mpc.html  ISSN 1523-6714

                                    2004 AF

                           Revision to MPEC 2004-A31

Additional Observations:
     K04A00F 9 1985 01 21.68667 10 54 19.60 -03 37 32.1                 ED034260
     K04A00F 9 1985 01 21.73529 10 54 15.98 -03 37 47.4                 ED034260
     K04A00F 9 1992 07 28.38929 16 25 25.83 -58 50 22.6                 ED034260
     K04A00F 9 1992 07 28.42054 16 25 20.30 -58 48 40.8                 ED034260
     K04A00F  C2004 02 08.21250 04 42 43.14 +44 53 12.4          17.7 R ED034932
     K04A00F  C2004 02 08.21667 04 42 44.13 +44 53 02.2          17.5 R ED034932
     K04A00F  C2004 02 08.22222 04 42 45.32 +44 52 49.3          16.9 R ED034932
     K04A00F  C2004 02 20.79323 05 22 13.49 +37 52 15.8                 ED034046
     K04A00F  C2004 02 20.79484 05 22 13.71 +37 52 12.5                 ED034046
     K04A00F  C2004 02 20.79561 05 22 13.78 +37 52 11.3                 ED034046
     K04A00F  C2004 02 20.79642 05 22 13.85 +37 52 09.9                 ED034046
     K04A00F  C2004 02 20.79723 05 22 14.09 +37 52 09.0                 ED034046

Observer details:
046 Klet.  Observers M. Tichy, Z. Sovova.  0.57-m f/5.2 reflector + CCD.
260 Siding Spring-DSS.  Measurers R. Haver, A. Pelloni, G. Forti.  1.2-m
    Schmidt.
932 John J. McCarthy Obs., New Milford.  Observer M. Robson.  Measurer
    A. Engine.  0.4-m f/6.5 Schmidt-Cassegrain + CCD.

First and last observations above in comparison with prediction:
Residuals in seconds of arc (or two decimals in degrees), reference and Delta-T
850121 260 1.66+ 2.11-    040220 046  3.4-  0.1-    MPO 58114   +0.017 day

Orbital elements:
2004 AF
Epoch 2004 July 14.0 TT = JDT 2453200.5                 MPC
M  90.21331              (2000.0)            P               Q
n   0.35601669     Peri.   57.63162     +0.90712032     -0.27582637
a   1.9716166      Node   315.93951     +0.00012457     +0.75548414
e   0.5528444      Incl.   27.20128     +0.42087137     +0.59427563
P   2.77           H   16.2           G   0.15           U   2
Residuals in seconds of arc
850121 260  0.3-  0.7-    040109 J92  0.5+  0.2+    040112 J92  0.1+  0.0
850121 260  1.3+  0.2+    040109 J92  0.3+  0.1-    040112 J92  0.4+  0.3-
920728 260  0.1-  1.3+    040109 J92  0.5-  0.2+    040112 926  0.6-  0.2+
920728 260  0.2-  1.0-    040109 J92  0.2+  0.1+    040112 926  0.0   0.0
040105 704  0.6+  0.8+    040109 926  0.6-  0.1+    040112 926  0.4+  0.1-
040105 704  0.6+  1.0+    040109 926  0.1-  0.1-    040113 704  0.8+  0.7-
040105 704  0.3+  0.3+    040109 926  0.1+  0.1-    040113 649  0.1-  0.1+
040105 704  0.2+  0.7+    040109 J92  0.2-  0.1-    040113 704  0.0   0.7-
040105 461  0.5-  0.9+    040109 J92  0.4+  0.1-    040113 649  0.2-  0.1+
040105 461  0.9+  0.9+    040109 J92  0.3+  0.1-    040113 704  0.9+  0.3-
040105 461  0.1-  0.2-    040109 J92  0.4-  0.0     040113 704 (2.4-  0.3+)
040105 461  0.0   0.3-    040109 J92  0.1-  0.3-    040113 704  0.3+  0.5-
040105 461  1.1+  0.1-    040109 J92  0.1-  0.6-    040113 704 (3.0-  0.1-)
040105 461  0.1+  0.5-    040109 J92  0.4-  0.5-    040113 704  0.2+  0.8-
040105 461  0.8+  0.6+    040109 J92  0.2+  0.2-    040113 704 (2.2-  0.3-)
040105 461  1.1-  0.3+    040109 J92  0.4+  0.2-    040113 704  0.3+  0.0
040106 673  0.2+  0.1-    040109 J92  0.4-  0.1-    040113 704 (2.2-  0.5-)
040106 673  0.1-  0.2-    040109 J92  0.6-  0.1-    040114 926  0.5-  0.2+
040106 673  0.3-  0.1-    040109 J92  0.1-  0.4-    040114 926  0.2+  0.0
040106 673  0.2+  0.2-    040109 213  0.1+  0.2-    040114 926  0.1-  0.2+
040106 673  0.2-  0.2-    040109 213  0.3-  0.1+    040116 J95  0.3-  0.4+
040106 673  0.7-  0.1-    040109 213  0.0   0.1+    040116 J95  0.4-  0.3+
040106 926  1.0-  0.0     040110 294  0.3+  0.2-    040116 J95  0.4-  0.4+
040106 926  0.1-  0.1-    040110 294  2.0+  1.5-    040117 H72  0.4-  0.2+
040106 926  0.1+  0.1-    040110 294 (2.5+  0.9+)   040117 H72  0.2-  0.5-
040107 932  0.2-  0.1+    040110 673  0.3-  0.1+    040117 H72  0.5-  0.3+
040107 926  0.6-  0.1+    040110 673  0.7-  0.0     040117 H72  0.5-  0.3+
040107 926  0.2-  0.1+    040110 673  0.2-  0.3-    040118 938  0.2-  0.3+
040107 932  0.4-  0.0     040110 673  0.9-  0.2+    040118 939  0.2-  0.3+
040107 926  0.0   0.2+    040110 355  0.1-  0.3-    040118 939  0.0   0.6+
040107 932  0.2+  0.1+    040110 355  0.1-  0.1-    040123 113  0.7-  0.7+
040107 649  0.0   0.2+    040110 355  0.3-  0.7-    040123 113  0.1-  0.4+
040107 649  0.1+  0.1+    040110 355  0.3-  0.1-    040123 113  0.1-  0.5+
040107 649  0.1-  0.1-    040110 104  0.3-  0.1-    040123 113  0.3-  0.3+
040107 185  0.8-  0.4-    040110 104  0.3-  0.1-    040123 113  0.7+  0.1-
040107 185  0.3-  0.2+    040110 104  0.4-  0.1-    040123 113  0.1-  0.3-
040107 185  0.1+  0.3+    040110 104  0.4-  0.1-    040123 113  0.1-  0.3+
040107 185  0.5+  0.1-    040110 106  0.0   0.2+    040123 113  0.0   0.1+
040107 185  0.3+  0.1+    040110 106  0.0   0.0     040123 113  0.1+  0.6+
040107 185  0.2-  0.4+    040110 587  0.3+  0.0     040124 H72  0.6-  0.3+
040107 185  0.4-  0.5+    040110 587  0.2+  0.3-    040124 H72  0.7-  0.1-
040108 673  1.9+  0.1-    040110 587  0.1+  0.2-    040124 H72  0.3-  0.5+
040108 673  0.6+  0.1+    040110 213  0.4-  0.1+    040124 H72  0.6-  0.4+
040108 750  0.3-  0.2+    040110 213  0.9-  0.1+    040124 H72  0.2-  0.7+
040108 673  0.6+  0.1+    040110 294  0.2+  0.2-    040124 H72  0.3+  0.2-
040108 750  0.0   0.2+    040110 294  0.1-  0.1-    040124 H72  0.0   1.2+
040108 750  0.0   0.1+    040110 294  0.3+  0.2-    040124 H72  0.3+  0.2+
040108 673  0.9+  0.1-    040111 670  0.2+  0.0     040125 379  0.2+  0.6+
040108 750  0.0   0.0     040111 670  0.3-  0.1+    040125 379  1.4+  0.4+
040108 750  0.0   0.2-    040111 670  0.4+  0.2-    040129 132  0.4-  0.0
040108 673  1.2+  0.0     040111 670  0.1+  0.6+    040129 132  0.4-  0.0
040108 673  1.0+  0.2+    040111 649  0.1-  0.4+    040129 132  0.3-  0.2-
040108 J95  0.2-  0.3+    040111 649  0.0   0.2+    040202 143  0.0   0.3+
040108 540  0.2+  0.1-    040111 649  0.1-  0.1+    040202 143  0.2+  0.2+
040108 J95  0.2-  0.3+    040111 J92 (4.9-  1.3+)   040202 143  0.1-  0.4-
040108 540  0.1+  0.0     040111 J92  0.3-  0.1-    040206 926  0.7-  0.4+
040108 J95  0.2-  0.2+    040111 J92  0.0   0.0     040206 926  0.2+  0.0
040108 540  0.5+  0.3-    040111 J92  0.1+  0.3-    040206 926  0.6+  0.8-
040108 540  0.1+  0.1+    040111 J92  0.4-  0.2-    040207 926  0.2-  0.4+
040109 J92  0.1+  0.3+    040111 J92  0.1-  0.1-    040207 926  0.1-  0.1-
040109 J92  0.1+  0.0     040111 J92  0.2-  0.0     040207 926  0.3+  0.4-
040109 J92  0.7+  0.1+    040111 J92  0.0   0.0     040208 932  0.2-  0.4+
040109 J92  0.5-  0.1-    040111 J92  0.2-  0.1-    040208 932  0.5+  0.1-
040109 J92  0.2-  0.3+    040111 J92  0.5+  0.6-    040208 932  0.0   0.1-
040109 J92  0.2+  0.3-    040111 J92  0.3-  0.1-    040210 704  0.7+  0.2+
040109 J92  0.5+  0.0     040111 J92  0.0   0.1-    040210 704  1.2+  0.2+
040109 J92  0.2+  0.1+    040111 J92  0.3+  0.2-    040210 704  1.0+  0.1+
040109 J92  0.5+  0.1+    040111 J92  0.1+  0.1-    040210 704  0.6+  0.5+
040109 J92  0.3-  0.1+    040111 J92  0.3-  0.0     040210 704  0.6+  0.0
040109 J92  0.1-  0.3+    040111 J92  0.3-  0.1-    040212 170  0.2-  0.1+
040109 J92  1.0-  0.3+    040111 J92  0.4-  0.3+    040212 170  0.1-  0.0
040109 J92  0.3+  0.1+    040111 J92  0.6-  0.0     040212 170  0.3+  0.1-
040109 J92  0.7+  0.1-    040111 J92  0.2+  0.2-    040214 830  0.5-  0.7-
040109 J92  0.3-  0.1-    040111 J92  0.4+  0.2-    040214 830  0.1-  0.3-
040109 J92  0.3+  0.0     040111 J92  0.1-  0.1-    040220 046  0.0   0.5-
040109 J92  0.3+  0.1-    040111 J92  0.1-  0.1-    040220 046  0.4-  1.0-
040109 J92  0.1+  0.1-    040111 J92  0.2+  0.2-    040220 046  1.0-  0.8-
040109 J92  0.5+  0.0     040111 J92  0.1-  0.3-    040220 046  1.7-  0.8-
040109 J92  0.7-  0.2-    040111 J92  0.3+  0.2-    040220 046  0.4-  0.3-
040109 J92  0.6-  0.1-    040112 J92  0.3+  0.3-
040109 J92  0.2+  0.1+    040112 J92  0.2-  0.2-

Ephemeris:
2004 AF                  a,e,i = 1.97, 0.55, 27                  q = 0.8816
Date    TT    R. A. (2000) Decl.     Delta      r     Elong.  Phase     V
2004 02 15    05 05.61   +40 51.7    0.842    1.523   112.4    36.8    18.2
2004 02 25    05 33.12   +35 56.2    0.987    1.602   108.3    35.9    18.7
2004 03 06    05 56.32   +32 00.5    1.145    1.679   103.4    35.1    19.1
2004 03 16    06 17.02   +28 49.5    1.314    1.755    98.0    34.1    19.4
2004 03 26    06 36.20   +26 10.7    1.489    1.828    92.5    33.0    19.8
2004 04 05    06 54.39   +23 54.3    1.670    1.900    86.9    31.7    20.1
2004 04 15    07 11.87   +21 53.5    1.852    1.969    81.3    30.3    20.3
2004 04 25    07 28.83   +20 02.9    2.034    2.035    75.7    28.6    20.5
2004 05 05    07 45.37   +18 18.9    2.215    2.100    70.2    26.9    20.7
2004 05 15    08 01.54   +16 38.9    2.392    2.162    64.7    25.0    20.9

Kyle E. Smalley              (C) Copyright 2004 MPC           M.P.E.C. 2004-D34

Read MPEC 2004-D33 Read MPEC 2004-D35


Our Web policy. Index to the CBAT/MPC/ICQ pages.


Valid HTML 4.01!